Location: Kitt Peak
(31.9633°N, 111.6000°W)
Time: 23:53:21
(UTC-07:00)

Amateur Radio Satellites - All Passes

Search period start: 16 January 2017 23:23
Search period end: 17 January 2017 23:23
Location: Kitt Peak, 31.9633°N, 111.6000°W

Satellite Date Start Highest point End Downlink Frequencies (MHz)
Time Altitude Azimuth
DX 1 16 Jan 23:24:26 23:27:16 17° 69° (ENE) 23:30:07 434.975-435.025
JAS-2 16 Jan 23:24:42 23:31:55 77° 103° (ESE) 23:39:43 435.910
DUCHIFAT 1 16 Jan 23:29:13 23:32:31 22° 97° (E) 23:35:50 145.980
UKube-1 16 Jan 23:32:13 23:34:38 15° 68° (ENE) 23:37:03 .
NANOSAT C BR1 16 Jan 23:32:19 23:35:55 27° 97° (E) 23:39:30 145.865
CUBEBUG 1 16 Jan 23:33:56 23:38:22 85° 73° (ENE) 23:42:47 437.445
SPROUT 16 Jan 23:36:52 23:40:45 36° 73° (ENE) 23:44:39 437.525
50 SAT 16 Jan 23:37:44 23:41:00 35° 74° (ENE) 23:44:18 437.505
AISAT 16 Jan 23:39:31 23:43:55 62° 75° (ENE) 23:48:20 437.250
UNISAT 6 16 Jan 23:41:06 23:43:53 17° 291° (WNW) 23:46:41 437.425
ESTCUBE 1 16 Jan 23:44:29 23:48:43 40° 261° (W) 23:52:59 437.505/2401.250
TIGRISAT 16 Jan 23:56:42 23:58:26 12° 292° (WNW) 00:00:09 435.000
PCSat 17 Jan 00:08:25 00:09:55 11° 103° (ESE) 00:11:26 145.827
VELOX 1 17 Jan 00:13:13 00:17:34 54° 260° (W) 00:21:56 145.980
AO-85 17 Jan 00:19:50 00:23:40 61° 61° (ENE) 00:27:34 145.980
BUGSAT 1 17 Jan 00:20:12 00:23:45 30° 98° (E) 00:27:19 437.445
QB50P1 17 Jan 00:21:35 00:25:44 61° 285° (WNW) 00:29:54 145.935-145.965
POLYITAN 1 17 Jan 00:24:27 00:28:34 56° 284° (WNW) 00:32:43 437.675
QB50P2 17 Jan 00:25:34 00:29:40 50° 285° (WNW) 00:33:45 145.880/145.840
RS-15 17 Jan 00:28:44 00:40:28 89° 296° (WNW) 00:52:49 29.354- 29.394
YUBILEINY 17 Jan 00:43:12 00:48:55 19° 70° (ENE) 00:54:35 435.215
ISS 17 Jan 00:43:25 00:44:48 12° 328° (NNW) 00:46:11 145.825
POPSAT HIP 1 17 Jan 00:48:31 00:52:10 29° 288° (WNW) 00:55:49 437.405
DX 1 17 Jan 00:59:14 01:03:09 32° 262° (W) 01:07:06 434.975-435.025
AIST 1 17 Jan 01:03:30 01:06:12 16° 76° (ENE) 01:08:53
Oscar 19 17 Jan 01:03:31 01:07:40 24° 96° (E) 01:11:47 437.125/150
DUCHIFAT 1 17 Jan 01:04:49 01:08:03 22° 289° (WNW) 01:11:17 145.980
UKube-1 17 Jan 01:06:18 01:10:18 37° 261° (W) 01:14:20 .
NANOSAT C BR1 17 Jan 01:08:30 01:11:23 18° 290° (WNW) 01:14:18 145.865
JAS-2 17 Jan 01:11:44 01:16:16 18° 295° (WNW) 01:21:01 435.910
SPROUT 17 Jan 01:14:29 01:16:44 14° 266° (W) 01:19:00 437.525
TISAT 1 17 Jan 01:18:46 01:22:56 79° 77° (ENE) 01:27:07 437.305
Cosmos 2491 17 Jan 01:24:59 01:31:00 21° 82° (E) 01:37:01 435.465 / 435.565
BEESAT 17 Jan 01:41:10 01:44:59 25° 70° (ENE) 01:48:48 436.000
SWISSCUBE 17 Jan 01:42:07 01:46:08 28° 71° (ENE) 01:50:12 437.505
PCSat 17 Jan 01:47:14 01:52:37 71° 296° (WNW) 01:58:02 145.827
BUGSAT 1 17 Jan 01:56:27 01:58:49 15° 291° (WNW) 02:01:12 437.445
MOZHAYETS 4 17 Jan 02:13:24 02:15:40 14° 67° (ENE) 02:17:56
BEESAT 3 17 Jan 02:19:22 02:22:54 30° 57° (ENE) 02:26:25 437.485
PHONESAT 2.4 17 Jan 02:20:52 02:22:41 20° 145° (SE) 02:24:29 2401.200-2431.200
Gurwin Techsat 1B 17 Jan 02:24:13 02:29:33 85° 105° (ESE) 02:34:52 435.225
M-CUBED/EXP-1 PRIME 17 Jan 02:27:16 02:29:48 15° 65° (ENE) 02:32:15 437.505
Cosmos 2504 17 Jan 02:30:49 02:37:57 49° 80° (E) 02:44:49 435.465 / 435.565
YUBILEINY 17 Jan 02:37:41 02:46:29 76° 267° (W) 02:55:12 435.215
AIST 1 17 Jan 02:40:07 02:43:46 28° 270° (W) 02:47:24
ITUPSAT 1 17 Jan 02:40:24 02:45:08 73° 258° (WSW) 02:49:54 437.325
Oscar 19 17 Jan 02:42:25 02:46:55 31° 290° (WNW) 02:51:23 437.125/150
RS-15 17 Jan 02:45:24 02:54:47 26° 320° (NW) 03:04:28 29.354- 29.394
BEESAT 2 17 Jan 02:55:24 02:59:02 31° 58° (ENE) 03:02:39 435.950
AUBIESAT-1 17 Jan 03:05:49 03:09:46 32° 69° (ENE) 03:13:32 437.475
AO-7 17 Jan 03:11:01 03:18:20 33° 99° (E) 03:25:36 29.400- 29.500
ITAMSAT 1 17 Jan 03:16:08 03:21:11 50° 100° (E) 03:26:13 435.822/435.867
Cosmos 2491 17 Jan 03:18:22 03:26:58 65° 278° (W) 03:35:38 435.465 / 435.565
BEESAT 17 Jan 03:18:39 03:22:36 26° 263° (W) 03:26:35 436.000
KKS-1 17 Jan 03:20:07 03:23:42 24° 70° (ENE) 03:27:17 437.445
SWISSCUBE 17 Jan 03:20:09 03:23:51 23° 264° (W) 03:27:34 437.505
MOZHAYETS 4 17 Jan 03:48:02 03:52:23 45° 261° (W) 03:56:46
PHONESAT 2.4 17 Jan 03:54:42 03:56:47 29° 338° (NNW) 03:58:54 2401.200-2431.200
BEESAT 3 17 Jan 03:57:41 04:00:15 17° 251° (WSW) 04:02:48 437.485
M-CUBED/EXP-1 PRIME 17 Jan 03:59:34 04:03:55 43° 256° (WSW) 04:08:04 437.505
CUSAT 1 17 Jan 04:03:49 04:08:03 80° 279° (W) 04:13:45 437.405
DANDE 17 Jan 04:17:48 04:20:21 22° 87° (E) 04:23:25 436.750
CUBESAT XI-V 17 Jan 04:23:01 04:27:34 55° 75° (ENE) 04:32:10 437.345
STARS 17 Jan 04:23:20 04:27:38 57° 75° (ENE) 04:31:56 437.465
Cosmos 2504 17 Jan 04:25:24 04:30:42 22° 276° (W) 04:35:55 435.465 / 435.565
BEESAT 2 17 Jan 04:34:02 04:36:31 16° 251° (WSW) 04:39:00 435.950
AUBIESAT-1 17 Jan 04:41:03 04:44:06 18° 259° (W) 04:47:03 437.475
KKS-1 17 Jan 04:56:33 05:00:07 23° 263° (W) 05:03:42 437.445
ITAMSAT 1 17 Jan 04:57:04 05:00:11 16° 294° (WNW) 05:03:18 435.822/435.867
AO-7 17 Jan 05:03:16 05:11:07 46° 294° (WNW) 05:18:54 29.400- 29.500
BRITE-PL 17 Jan 05:24:56 05:29:52 85° 98° (E) 05:34:23 437.365/2234.400
PHONESAT 2.4 17 Jan 05:30:38 05:31:27 11° 354° (N) 05:32:15 2401.200-2431.200
LilacSat-2 17 Jan 05:36:46 05:38:41 13° 94° (E) 05:40:35 437.200
CUTE-I 17 Jan 05:39:37 05:43:00 17° 94° (E) 05:46:23 437.470
GOMX 1 17 Jan 05:48:32 05:52:53 53° 100° (E) 05:56:59 467.674
NOAA 18 17 Jan 05:56:24 05:58:25 12° 93° (E) 06:00:26 137.9125
AIST 2 17 Jan 05:56:31 06:00:43 58° 60° (ENE) 06:04:52 435.215
HORYU 2 17 Jan 06:01:19 06:05:47 85° 285° (WNW) 06:10:15 437.375
DANDE 17 Jan 06:01:43 06:03:13 12° 294° (WNW) 06:04:51 436.750
CUBESAT XI-V 17 Jan 06:03:59 06:05:12 11° 268° (W) 06:06:25 437.345
STRAND 1 17 Jan 06:14:53 06:18:55 24° 69° (ENE) 06:22:59 437.568
Cubesat XI-IV 17 Jan 06:20:07 06:25:13 44° 100° (E) 06:30:17 437.490
O/OREOS (USA 219) 17 Jan 06:26:24 06:30:11 27° 103° (ESE) 06:33:58 437.305
NOAA 15 17 Jan 06:42:33 06:47:53 82° 102° (ESE) 06:53:10 137.62
DOVE 4 17 Jan 06:46:40 06:50:52 86° 283° (WNW) 06:55:00 437.250
HO-68 17 Jan 06:47:16 06:51:31 16° 93° (E) 06:55:43 435.675
CANX-2 17 Jan 06:48:47 06:49:10 10° 92° (E) 06:49:33 2200.000
Cosmos 2499 17 Jan 06:54:40 07:01:06 35° 77° (ENE) 07:07:25 435.465 / 435.565
PHONESAT 2.4 17 Jan 07:04:59 07:06:17 13° 11° (NNE) 07:07:33 2401.200-2431.200
CINEMA 3 17 Jan 07:05:35 07:09:12 28° 98° (E) 07:12:53 145.822/145.860
LilacSat-2 17 Jan 07:09:35 07:12:59 30° 286° (WNW) 07:16:24 437.200
ISS 17 Jan 07:12:42 07:15:58 90° 72° (ENE) 07:19:13 145.825
CUTE-I 17 Jan 07:18:07 07:23:11 46° 287° (WNW) 07:28:16 437.470
GONETS M04 17 Jan 07:24:02 07:32:36 53° 80° (E) 07:41:09
RS-15 17 Jan 07:26:12 07:34:30 20° 34° (NNE) 07:42:37 29.354- 29.394
GOMX 1 17 Jan 07:29:58 07:30:21 10° 295° (WNW) 07:30:44 467.674
NOAA 18 17 Jan 07:34:01 07:39:25 65° 287° (WNW) 07:44:49 137.9125
CUTE 1.7 + AOD 2 17 Jan 07:52:33 07:56:48 59° 100° (E) 08:01:00 437.475
STRAND 1 17 Jan 07:53:29 07:57:54 30° 262° (W) 08:02:22 437.568
Cubesat XI-IV 17 Jan 08:01:17 08:04:53 19° 293° (WNW) 08:08:29 437.490
O/OREOS (USA 219) 17 Jan 08:06:09 08:09:31 21° 296° (WNW) 08:12:54 437.305
PRISM 17 Jan 08:06:20 08:08:44 15° 68° (ENE) 08:11:09 437.425
CANX-2 17 Jan 08:21:04 08:25:13 49° 285° (WNW) 08:29:21 2200.000
CUBEBUG 2 17 Jan 08:24:39 08:28:54 54° 100° (E) 08:33:16 437.445
NOAA 15 17 Jan 08:26:38 08:26:53 10° 297° (WNW) 08:27:07 137.62
HO-68 17 Jan 08:32:32 08:39:41 71° 287° (WNW) 08:46:47 435.675
Oscar 11 17 Jan 08:36:03 08:39:18 20° 95° (E) 08:42:33 145.826/435.025
PHONESAT 2.4 17 Jan 08:38:27 08:40:45 62° 25° (NNE) 08:43:04 2401.200-2431.200
SEEDS 17 Jan 08:39:54 08:44:03 53° 285° (WNW) 08:48:11 437.485
CINEMA 3 17 Jan 08:43:20 08:46:07 18° 290° (WNW) 08:48:57 145.822/145.860
SO-50 17 Jan 08:45:32 08:50:17 86° 293° (WNW) 08:55:00 436.795
Cosmos 2499 17 Jan 08:47:58 08:53:58 30° 273° (W) 08:59:55 435.465 / 435.565
COMPASS 1 17 Jan 08:52:22 08:56:31 59° 284° (WNW) 09:00:38 437.405
UNISAT 6 17 Jan 08:58:44 09:01:28 17° 69° (ENE) 09:04:12 437.425
UWE-3 17 Jan 09:00:46 09:05:09 88° 276° (W) 09:09:37 435.000/436.395/437.385
FUNcube-1 17 Jan 09:06:57 09:11:14 55° 100° (E) 09:15:37 145.935
AAUSAT CUBESAT 2 17 Jan 09:07:30 09:11:34 51° 285° (WNW) 09:15:35 437.432
TIGRISAT 17 Jan 09:12:34 09:15:54 23° 71° (ENE) 09:19:13 435.000
GONETS M04 17 Jan 09:21:49 09:28:51 28° 276° (W) 09:35:54
DELFI C3 17 Jan 09:22:10 09:25:14 21° 96° (E) 09:28:15 145.870
ANTELSAT 17 Jan 09:26:13 09:30:07 35° 73° (ENE) 09:34:00 437.575/2403.000
ZACube-1 17 Jan 09:27:51 09:32:12 73° 283° (WNW) 09:36:39 437.345
JAS-2 17 Jan 09:35:39 09:38:31 15° 63° (ENE) 09:41:28 435.910
RS-15 17 Jan 09:37:31 09:49:49 69° 59° (ENE) 10:01:32 29.354- 29.394
PRISM 17 Jan 09:39:56 09:43:42 33° 261° (W) 09:47:29 437.425
CUBEBUG 2 17 Jan 10:04:25 10:05:03 10° 292° (WNW) 10:05:41 437.445
HUMSAT D 17 Jan 10:10:49 10:14:57 46° 99° (E) 10:19:05 437.325/437.525
Oscar 11 17 Jan 10:11:44 10:15:21 26° 288° (WNW) 10:18:58 145.826/435.025
NANOSAT C BR1 17 Jan 10:21:53 10:23:10 11° 67° (ENE) 10:24:27 145.865
HO-68 17 Jan 10:25:33 10:26:08 10° 304° (WNW) 10:26:43 435.675
UNISAT 6 17 Jan 10:34:07 10:37:55 31° 262° (W) 10:41:42 437.425
PCSat 17 Jan 10:40:18 10:45:11 33° 59° (ENE) 10:50:01 145.827
FUNcube-1 17 Jan 10:46:11 10:46:58 10° 293° (WNW) 10:47:46 145.935
TIGRISAT 17 Jan 10:49:07 10:52:27 22° 263° (W) 10:55:48 435.000
DELFI C3 17 Jan 10:56:52 10:59:53 21° 289° (WNW) 11:02:53 145.870
ANTELSAT 17 Jan 11:04:38 11:06:53 14° 266° (W) 11:09:10 437.575/2403.000
BY70-1 17 Jan 11:06:00 11:09:17 49° 99° (E) 11:12:21 436.1900
BUGSAT 1 17 Jan 11:07:14 11:08:39 12° 68° (ENE) 11:10:04 437.445
QB50P1 17 Jan 11:08:52 11:12:54 48° 75° (ENE) 11:16:57 145.935-145.965
POLYITAN 1 17 Jan 11:11:49 11:15:55 53° 75° (ENE) 11:20:00 437.675
QB50P2 17 Jan 11:12:52 11:17:00 60° 76° (ENE) 11:21:09 145.880/145.840
JAS-2 17 Jan 11:18:00 11:23:01 51° 260° (W) 11:28:22 435.910
CUBEBUG 1 17 Jan 11:28:05 11:31:28 22° 96° (E) 11:34:49 437.445
POPSAT HIP 1 17 Jan 11:35:15 11:39:27 77° 259° (W) 11:43:39 437.405
AISAT 17 Jan 11:35:37 11:38:28 17° 95° (E) 11:41:17 437.250
ESTCUBE 1 17 Jan 11:41:26 11:45:56 61° 101° (E) 11:50:22 437.505/2401.250
HUMSAT D 17 Jan 11:48:35 11:50:06 12° 292° (WNW) 11:51:37 437.325/437.525
DUCHIFAT 1 17 Jan 11:50:38 11:54:44 57° 259° (W) 11:58:51 145.980
RS-15 17 Jan 11:51:35 12:01:11 29° 258° (WSW) 12:10:30 29.354- 29.394
NANOSAT C BR1 17 Jan 11:54:25 11:58:25 45° 260° (W) 12:02:27 145.865
VELOX 1 17 Jan 12:08:08 12:12:15 39° 99° (E) 12:16:21 145.980
Oscar 19 17 Jan 12:15:50 12:19:48 23° 68° (ENE) 12:23:47 437.125/150
PCSat 17 Jan 12:23:55 12:28:22 26° 253° (WSW) 12:32:48 145.827
BUGSAT 1 17 Jan 12:39:43 12:43:36 41° 261° (W) 12:47:28 437.445
50 SAT 17 Jan 12:40:42 12:44:17 87° 107° (ESE) 12:47:48 437.505
DX 1 17 Jan 12:51:39 12:55:57 60° 101° (ESE) 13:00:12 434.975-435.025
UKube-1 17 Jan 12:57:47 13:01:58 49° 100° (E) 13:06:07 .
SPROUT 17 Jan 13:02:45 13:06:54 57° 285° (WNW) 13:11:03 437.525
CUBEBUG 1 17 Jan 13:04:10 13:07:37 24° 289° (WNW) 13:11:03 437.445
TISAT 1 17 Jan 13:08:25 13:11:11 17° 95° (E) 13:13:56 437.305
AISAT 17 Jan 13:11:03 13:14:56 32° 288° (WNW) 13:18:48 437.250
ESTCUBE 1 17 Jan 13:21:59 13:22:08 10° 295° (WNW) 13:22:17 437.505/2401.250
AIST 1 17 Jan 13:28:43 13:30:34 12° 86° (E) 13:32:24
Cosmos 2491 17 Jan 13:34:45 13:43:15 51° 80° (E) 13:51:44 435.465 / 435.565
YUBILEINY 17 Jan 13:37:51 13:44:35 25° 84° (E) 13:51:20 435.215
Gurwin Techsat 1B 17 Jan 13:40:17 13:45:36 84° 75° (ENE) 13:50:56 435.225
VELOX 1 17 Jan 13:45:59 13:48:19 14° 293° (WNW) 13:50:39 145.980
SWISSCUBE 17 Jan 13:49:53 13:50:33 10° 93° (E) 13:51:13 437.505
Oscar 19 17 Jan 13:54:10 13:58:51 34° 262° (W) 14:03:35 437.125/150
AO-7 17 Jan 14:05:05 14:12:04 31° 62° (ENE) 14:19:03 29.400- 29.500
JUGNU 17 Jan 14:20:38 14:23:39 14° 164° (SSE) 14:26:42 437.505
AO-85 17 Jan 14:28:38 14:33:31 71° 115° (ESE) 14:38:02 145.980
ITAMSAT 1 17 Jan 14:29:19 14:34:13 46° 73° (ENE) 14:39:09 435.822/435.867
UKube-1 17 Jan 14:36:13 14:37:29 11° 294° (WNW) 14:38:46 .
CUSAT 1 17 Jan 14:40:43 14:48:37 60° 79° (E) 14:55:53 437.405
TISAT 1 17 Jan 14:43:12 14:46:46 28° 288° (WNW) 14:50:21 437.305
ITUPSAT 1 17 Jan 14:45:48 14:50:22 42° 99° (E) 14:54:55 437.325
DANDE 17 Jan 14:56:54 15:03:38 31° 75° (ENE) 15:10:44 436.750
Cosmos 2504 17 Jan 15:01:23 15:09:50 52° 90° (E) 15:17:55 435.465 / 435.565
AIST 1 17 Jan 15:03:37 15:07:43 39° 279° (W) 15:11:49
BEESAT 17 Jan 15:22:34 15:27:20 72° 285° (WNW) 15:32:06 436.000
SWISSCUBE 17 Jan 15:23:53 15:28:37 61° 285° (WNW) 15:33:20 437.505
YUBILEINY 17 Jan 15:32:08 15:40:41 57° 279° (W) 15:49:22 435.215
Cosmos 2491 17 Jan 15:32:29 15:39:32 28° 275° (W) 15:46:36 435.465 / 435.565
M-CUBED/EXP-1 PRIME 17 Jan 15:44:42 15:46:33 14° 100° (E) 15:48:23 437.505
MOZHAYETS 4 17 Jan 15:47:31 15:52:07 60° 101° (E) 15:56:41
AO-7 17 Jan 15:56:20 16:04:22 52° 258° (WSW) 16:12:29 29.400- 29.500
BEESAT 3 17 Jan 16:05:57 16:08:17 16° 109° (ESE) 16:10:38 437.485
JUGNU 17 Jan 16:07:28 16:12:02 23° 173° (S) 16:16:38 437.505
ITAMSAT 1 17 Jan 16:10:44 16:13:51 16° 266° (W) 16:16:58 435.822/435.867
AO-85 17 Jan 16:12:45 16:14:15 11° 309° (NW) 16:15:43 145.980
STARS 17 Jan 16:18:51 16:21:23 15° 95° (E) 16:23:55 437.465
AUBIESAT-1 17 Jan 16:23:05 16:26:16 41° 104° (ESE) 16:29:22 437.475
CUSAT 1 17 Jan 16:23:51 16:29:52 24° 275° (W) 16:35:33 437.405
ITUPSAT 1 17 Jan 16:24:53 16:27:48 16° 293° (WNW) 16:30:44 437.325
CUBESAT XI-V 17 Jan 16:25:17 16:28:44 20° 95° (E) 16:32:10 437.345
BRITE-PL 17 Jan 16:29:04 16:34:35 60° 75° (ENE) 16:40:11 437.365/2234.400
DANDE 17 Jan 16:38:53 16:46:26 52° 267° (W) 16:54:26 436.750
O/OREOS (USA 219) 17 Jan 16:40:59 16:44:41 24° 65° (ENE) 16:48:22 437.305
BEESAT 2 17 Jan 16:43:12 16:45:49 17° 109° (ESE) 16:48:28 435.950
GOMX 1 17 Jan 16:50:30 16:55:32 38° 73° (ENE) 17:00:27 467.674
KKS-1 17 Jan 16:51:10 16:55:36 85° 284° (WNW) 17:00:01 437.445
HORYU 2 17 Jan 16:54:23 16:58:35 46° 74° (ENE) 17:02:48 437.375
Cosmos 2504 17 Jan 16:56:06 17:03:21 29° 285° (WNW) 17:10:24 435.465 / 435.565
CUTE-I 17 Jan 16:57:00 17:00:30 18° 67° (ENE) 17:04:00 437.470
NOAA 18 17 Jan 17:17:27 17:20:44 16° 65° (ENE) 17:24:00 137.9125
M-CUBED/EXP-1 PRIME 17 Jan 17:18:32 17:21:01 19° 293° (WNW) 17:23:25 437.505
SO-50 17 Jan 17:22:18 17:25:49 22° 54° (NE) 17:29:18 436.795
MOZHAYETS 4 17 Jan 17:27:37 17:28:42 11° 294° (WNW) 17:29:46
SRMSAT 17 Jan 17:31:07 17:35:06 18° 168° (SSE) 17:39:06 437.500
Cubesat XI-IV 17 Jan 17:37:18 17:42:20 45° 73° (ENE) 17:47:24 437.490
BEESAT 3 17 Jan 17:42:10 17:45:36 30° 303° (WNW) 17:49:04 437.485
LilacSat-2 17 Jan 17:46:03 17:49:44 58° 76° (ENE) 17:53:27 437.200
DOVE 4 17 Jan 17:46:09 17:51:10 55° 75° (ENE) 17:55:58 437.250
STARS 17 Jan 17:53:49 17:57:46 35° 288° (WNW) 18:01:44 437.465
JUGNU 17 Jan 17:55:47 18:00:30 25° 184° (S) 18:05:15 437.505
NOAA 15 17 Jan 17:57:36 18:02:51 80° 76° (ENE) 18:08:10 137.62
CUBESAT XI-V 17 Jan 18:01:59 18:06:04 30° 288° (WNW) 18:10:08 437.345
CINEMA 3 17 Jan 18:03:28 18:06:13 16° 70° (ENE) 18:08:53 145.822/145.860
BRITE-PL 17 Jan 18:10:09 18:13:18 15° 268° (W) 18:16:29 437.365/2234.400
BEESAT 2 17 Jan 18:19:57 18:23:21 28° 304° (WNW) 18:26:48 435.950
O/OREOS (USA 219) 17 Jan 18:20:22 18:23:55 23° 258° (WSW) 18:27:30 437.305
GOMX 1 17 Jan 18:29:26 18:33:34 22° 265° (W) 18:37:41 467.674
STRAND 1 17 Jan 18:31:49 18:33:41 12° 93° (E) 18:35:33 437.568
HORYU 2 17 Jan 18:33:48 18:35:18 12° 266° (W) 18:36:48 437.375
CUTE-I 17 Jan 18:35:04 18:40:08 45° 260° (W) 18:45:13 437.470
CUTE 1.7 + AOD 2 17 Jan 18:40:55 18:44:12 22° 71° (ENE) 18:47:29 437.475
HO-68 17 Jan 18:55:21 19:02:16 53° 70° (ENE) 19:09:13 435.675
NOAA 18 17 Jan 18:55:28 19:00:52 55° 259° (WSW) 19:06:16 137.9125
SO-50 17 Jan 19:02:22 19:06:15 30° 248° (WSW) 19:10:06 436.795
CANX-2 17 Jan 19:08:27 19:12:36 58° 76° (ENE) 19:16:47 2200.000
CUBEBUG 2 17 Jan 19:18:43 19:22:05 24° 72° (ENE) 19:25:25 437.445
SRMSAT 17 Jan 19:18:54 19:23:42 25° 178° (S) 19:28:31 437.500
Cubesat XI-IV 17 Jan 19:19:09 19:22:33 17° 265° (W) 19:25:58 437.490
Cosmos 2499 17 Jan 19:24:13 19:31:56 38° 88° (E) 19:39:12 435.465 / 435.565
SEEDS 17 Jan 19:26:16 19:30:20 51° 75° (ENE) 19:34:27 437.485
DOVE 4 17 Jan 19:26:42 19:28:59 13° 267° (W) 19:31:16 437.250
COMPASS 1 17 Jan 19:37:49 19:41:48 44° 74° (ENE) 19:45:48 437.405
CINEMA 3 17 Jan 19:38:51 19:43:03 36° 261° (W) 19:47:07 145.822/145.860
JUGNU 17 Jan 19:45:10 19:48:56 17° 193° (SSW) 19:52:43 437.505
AIST 2 17 Jan 19:49:20 19:53:07 38° 113° (ESE) 19:56:59 435.215
AAUSAT CUBESAT 2 17 Jan 19:52:18 19:56:19 50° 75° (ENE) 20:00:22 437.432
UWE-3 17 Jan 19:53:12 19:57:02 37° 74° (ENE) 20:00:52 435.000/436.395/437.385
FUNcube-1 17 Jan 19:58:29 20:01:39 22° 71° (ENE) 20:04:50 145.935
STRAND 1 17 Jan 20:08:06 20:13:09 60° 286° (WNW) 20:18:13 437.568
CUTE 1.7 + AOD 2 17 Jan 20:16:31 20:19:52 23° 264° (W) 20:23:16 437.475
GONETS M04 17 Jan 20:18:28 20:27:04 70° 92° (E) 20:35:44
ZACube-1 17 Jan 20:18:53 20:22:49 43° 75° (ENE) 20:26:45 437.345
HO-68 17 Jan 20:44:40 20:50:10 24° 264° (W) 20:55:43 435.675
CUBEBUG 2 17 Jan 20:55:27 20:58:36 20° 264° (W) 21:01:43 437.445
HUMSAT D 17 Jan 20:58:23 21:01:00 17° 70° (ENE) 21:03:38 437.325/437.525
Oscar 11 17 Jan 21:00:37 21:04:52 64° 259° (W) 21:09:10 145.826/435.025
SRMSAT 17 Jan 21:07:46 21:12:20 23° 188° (S) 21:16:53 437.500
COMPASS 1 17 Jan 21:16:35 21:17:30 11° 267° (W) 21:18:27 437.405
Cosmos 2499 17 Jan 21:17:03 21:24:52 38° 282° (WNW) 21:32:18 435.465 / 435.565
ANTELSAT 17 Jan 21:24:29 21:25:52 11° 93° (E) 21:27:14 437.575/2403.000
PRISM 17 Jan 21:25:46 21:29:42 44° 100° (E) 21:33:36 437.425
AIST 2 17 Jan 21:29:16 21:31:44 15° 308° (NW) 21:34:13 435.215
UWE-3 17 Jan 21:31:50 21:33:36 12° 266° (W) 21:35:22 435.000/436.395/437.385
FUNcube-1 17 Jan 21:34:36 21:37:46 21° 264° (W) 21:40:57 145.935
DELFI C3 17 Jan 21:36:15 21:40:15 75° 260° (W) 21:44:15 145.870
RS-15 17 Jan 21:51:09 21:54:22 11° 96° (E) 21:57:36 29.354- 29.394
ZACube-1 17 Jan 21:58:36 21:59:16 10° 267° (W) 21:59:56 437.345
ISS 17 Jan 22:13:09 22:15:57 27° 129° (SE) 22:18:45 145.825
GONETS M04 17 Jan 22:18:36 22:24:32 20° 290° (WNW) 22:30:33
CUBEBUG 1 17 Jan 22:21:30 22:22:38 11° 67° (ENE) 22:23:47 437.445
UNISAT 6 17 Jan 22:29:32 22:33:58 75° 102° (ESE) 22:38:30 437.425
JAS-2 17 Jan 22:30:36 22:36:52 30° 97° (E) 22:43:28 435.910
HUMSAT D 17 Jan 22:32:50 22:36:21 28° 263° (W) 22:39:53 437.325/437.525
ESTCUBE 1 17 Jan 22:36:15 22:40:12 31° 72° (ENE) 22:44:10 437.505/2401.250
TIGRISAT 17 Jan 22:43:50 22:48:16 80° 284° (WNW) 22:52:47 435.000
BY70-1 17 Jan 22:46:25 22:49:10 80° 258° (WSW) 22:52:13 436.1900
SRMSAT 17 Jan 22:58:08 23:00:52 13° 197° (SSW) 23:03:37 437.500
ANTELSAT 17 Jan 22:58:26 23:02:43 49° 285° (WNW) 23:07:05 437.575/2403.000
QB50P1 17 Jan 23:00:30 23:01:53 11° 93° (E) 23:03:17 145.935-145.965
VELOX 1 17 Jan 23:01:13 23:04:29 20° 69° (ENE) 23:07:43 145.980
POLYITAN 1 17 Jan 23:03:12 23:05:07 13° 94° (E) 23:07:01 437.675
PRISM 17 Jan 23:03:19 23:04:32 11° 293° (WNW) 23:05:44 437.425
QB50P2 17 Jan 23:03:59 23:06:17 14° 94° (E) 23:08:35 145.880/145.840
AO-85 17 Jan 23:06:28 23:08:23 13° 52° (NE) 23:10:19 145.980
50 SAT 17 Jan 23:11:48 23:13:57 15° 70° (ENE) 23:16:07 437.505
